OBJECT G, 61900

Orbit data source: Space-Track

You're viewing an Uncataloged Satellite

Recently launched and/or uncataloged satellites may have evolving metadata. Metadata may include but not limited to: Owner, Maufacturer, Bus, Motor, and Mission.

OBJECT G, 61900 is a satellite owned by Yunyao yuhang (CN) in SSO that was launched on Mon, 11 Nov 2024 UTC via a LIJIAN-1 launch vehicle from the Jiuquan Satellite Launch Center, China (JSC). Unknown objects in Earth's orbit typically refer to objects detected orbiting the Earth but have not yet been identified or cataloged. These objects could be anything from previously untracked satellites, spent rocket stages, debris from satellite collisions, or even natural meteoroids temporarily captured by Earth's gravity.

Loading next visibility...
OBJECT G details
Identifier
61900, 2024-205G
Orbit
SSO
Last TLE update9 hours ago
Origin
Flag of CNYunyao yuhang (CN / PRC)
ManufacturerYunyao yuhang
MissionOperational spacecraft
Bus & MotorYY-1, Unknown motor
Mass~50 kg wet, ~50 kg dry
Launch date (UTC)
2024-11-11 (1 month ago)
Launch vehicle
LIJIAN-1
Launch site
Jiuquan Satellite Launch Center, China (JSC)
Object typeUnknown
Shape & HBRUnknown
Radar Cross SectionMedium (>0.1 m² and <1 m²)

Expand to show TLE details & history

TLE from 9 hours ago
0 OBJECT G
1 61900U 24205G   24348.57480012  .00016312  00000-0  85573-3 0  9991
2 61900  97.4742  60.2122 0014322 167.5018 192.6573 15.15738308  4877
Epoch: 2024-12-13T13:47Z
Definitive object data (Epoch: 2024-12-13T13:47:42.73Z)
Latitude0.00002°
Longitude130.54534°
Altitude531.461 km
Speed7.592 km/s
True Right ascension04h 00m 50s
True Declination0° 00' 00"
Sunlit
Object was in full shadow at TLE epoch
Visualization TLE readout
Latitude-52.88965°
Longitude140.85611°
Altitude546.902 km
Speed7.583 km/s
Apparent Right ascension07h 22m 25s
Apparent Declination-52° 41' 18"
Sunlit
Object is in daylight
Visualization observer readout
Local Sidereal Time21:35:57
Azimuth130.538° SE
Elevation-63.967°
Doppler factor1
Orbital elements
Apogee altitude525.586 km
Perigee altitude505.839 km
Semi-major axis6,893.849 km
Eccentricity0.0014322
Inclination97.4742°
RAAN60.2122°
Arg. of periapsis167.5018°
True anomaly192.6214°
Mean anomaly192.6573°
Eccentric anomaly192.63934°
Mean motion3.79184 °/min
BSTAR0.00085573
Orbital period94.94 mins
Loading maneuver chart data...
Loading historical data...
Loading historical data...
Loading historical data...
Loading historical data...
Loading historical data...
Loading historical data...
Loading historical data...

OBJECT G Visibility forecast

Observer location: undefined°, undefined

Span
Click to sort rows by Start time (UTC) header in descending order
Start Az.
Max El. time (UTC)
Max El. Az.
Max El.
End time (UTC)
End Az.
5 mins2024-12-14 04:11:56.997Z117.061° SE2024-12-14 04:14:56.997Z62.389° ENE19.504°2024-12-14 04:16:56.997Z26.095° NE
4 mins2024-12-14 05:46:56.997Z226.138° WSW2024-12-14 05:48:56.997Z272.632° WNW22.304°2024-12-14 05:50:56.997Z311.687° NW
5 mins2024-12-14 17:18:56.997Z47.644° ENE2024-12-14 17:20:56.997Z97.753° ESE26.897°2024-12-14 17:23:56.997Z158.233° S
|